TimeICT,TemperatureF,Dew PointF,Humidity,Sea Level PressureIn,VisibilityMPH,Wind Direction,Wind SpeedMPH,Gust SpeedMPH,PrecipitationIn,Events,Conditions,WindDirDegrees,DateUTC
12:00 AM,82.4,69.8,66,29.92,3.1,SSE,2.3,-,N/A,,Mist,160,2013-01-21 17:00:00
12:30 AM,80.6,69.8,70,29.92,3.1,Calm,Calm,-,N/A,,Mist,0,2013-01-21 17:30:00
1:00 AM,81,69,60,29.95,3,Calm,Calm,,,,Mist,,2013-01-21 18:00:00
1:00 AM,80.6,69.8,70,29.92,3.1,Calm,Calm,-,N/A,,Mist,0,2013-01-21 18:00:00
1:30 AM,80.6,69.8,70,29.92,3.1,Calm,Calm,-,N/A,,Mist,0,2013-01-21 18:30:00
2:00 AM,80.6,71.6,74,29.92,2.5,Calm,Calm,-,N/A,,Mist,0,2013-01-21 19:00:00
2:30 AM,80.6,68.0,65,29.89,2.5,SSW,3.5,-,N/A,,Mist,200,2013-01-21 19:30:00
3:00 AM,80.6,68.0,65,29.89,2.5,Calm,Calm,-,N/A,,Mist,0,2013-01-21 20:00:00
3:30 AM,78.8,68.0,69,29.89,2.5,NW,3.5,-,N/A,,Mist,320,2013-01-21 20:30:00
4:00 AM,78.8,68.0,69,29.89,1.9,WNW,4.6,-,N/A,,Mist,300,2013-01-21 21:00:00
4:30 AM,78.8,68.0,69,29.89,1.9,NW,4.6,-,N/A,,Mist,320,2013-01-21 21:30:00
5:00 AM,77.0,68.0,74,29.89,1.9,NNW,4.6,-,N/A,,Mist,330,2013-01-21 22:00:00
5:30 AM,77.0,68.0,74,29.92,1.9,NNW,5.8,-,N/A,,Mist,330,2013-01-21 22:30:00
6:00 AM,77.0,68.0,74,29.92,1.9,NNW,4.6,-,N/A,,Mist,340,2013-01-21 23:00:00
6:30 AM,77.0,68.0,74,29.92,1.9,NNW,3.5,-,N/A,,Mist,340,2013-01-21 23:30:00
7:00 AM,77,68,67,29.95,2,NNW,5.8,,,,Mist,330,2013-01-22 00:00:00
7:00 AM,77.0,68.0,74,29.92,1.9,NNW,5.8,-,N/A,,Mist,330,2013-01-22 00:00:00
7:30 AM,77.0,68.0,74,29.95,1.9,North,3.5,-,N/A,,Mist,350,2013-01-22 00:30:00
8:00 AM,77.0,68.0,74,29.95,2.5,North,3.5,-,N/A,,Mist,350,2013-01-22 01:00:00
8:30 AM,78.8,68.0,69,29.98,2.5,NNE,3.5,-,N/A,,Mist,20,2013-01-22 01:30:00
9:00 AM,78.8,66.2,65,29.98,2.5,NNE,3.5,-,N/A,,Mist,30,2013-01-22 02:00:00
9:30 AM,80.6,66.2,61,29.98,2.5,NNE,3.5,-,N/A,,Mist,20,2013-01-22 02:30:00
10:00 AM,82.4,66.2,58,29.98,3.1,North,4.6,-,N/A,,Haze,10,2013-01-22 03:00:00
10:30 AM,84.2,64.4,51,29.98,3.1,NE,3.5,-,N/A,,Haze,40,2013-01-22 03:30:00
11:00 AM,86.0,64.4,48,29.98,3.1,East,4.6,-,N/A,,Haze,80,2013-01-22 04:00:00
11:30 AM,87.8,64.4,46,29.95,3.1,NNE,3.5,-,N/A,,Haze,30,2013-01-22 04:30:00
12:00 PM,89.6,64.4,43,29.92,3.1,NNE,3.5,-,N/A,,Haze,20,2013-01-22 05:00:00
12:30 PM,89.6,66.2,46,29.92,3.1,East,5.8,-,N/A,,Haze,80,2013-01-22 05:30:00
1:00 PM,91,66,34,29.92,3,East,6.9,,,,Haze,100,2013-01-22 06:00:00
1:00 PM,91.4,66.2,43,29.89,3.1,East,6.9,-,N/A,,Haze,100,2013-01-22 06:00:00
1:30 PM,91.4,66.2,43,29.89,3.1,East,5.8,-,N/A,,Haze,80,2013-01-22 06:30:00
2:00 PM,91.4,66.2,43,29.86,3.7,ESE,3.5,-,N/A,,Unknown,120,2013-01-22 07:00:00
2:30 PM,93.2,66.2,41,29.83,3.7,ESE,4.6,-,N/A,,Unknown,120,2013-01-22 07:30:00
3:00 PM,95.0,64.4,36,29.83,3.7,East,3.5,-,N/A,,Unknown,100,2013-01-22 08:00:00
3:30 PM,95.0,64.4,36,29.83,3.7,SE,8.1,-,N/A,,Unknown,130,2013-01-22 08:30:00
4:00 PM,95.0,64.4,36,29.83,3.7,SE,5.8,-,N/A,,Unknown,140,2013-01-22 09:00:00
4:30 PM,95.0,66.2,39,29.83,3.7,SE,6.9,-,N/A,,Unknown,140,2013-01-22 09:30:00
5:00 PM,93.2,66.2,41,29.83,3.7,SE,4.6,-,N/A,,Unknown,130,2013-01-22 10:00:00
5:30 PM,91.4,66.2,43,29.83,3.7,SE,4.6,-,N/A,,Unknown,130,2013-01-22 10:30:00
6:00 PM,89.6,68.0,49,29.83,3.7,SSE,4.6,-,N/A,,Unknown,150,2013-01-22 11:00:00
6:30 PM,87.8,68.0,52,29.86,3.7,East,3.5,-,N/A,,Unknown,90,2013-01-22 11:30:00
7:00 PM,88,69,44,29.88,4,West,4.6,,,,Haze,280,2013-01-22 12:00:00
7:00 PM,87.8,69.8,55,29.86,3.7,West,4.6,-,N/A,,Unknown,280,2013-01-22 12:00:00
7:30 PM,87.8,69.8,55,29.86,3.7,NW,5.8,-,N/A,,Unknown,320,2013-01-22 12:30:00
8:00 PM,87.8,71.6,58,29.89,3.1,West,4.6,-,N/A,,Haze,260,2013-01-22 13:00:00
8:30 PM,87.8,69.8,55,29.89,3.1,West,2.3,-,N/A,,Haze,270,2013-01-22 13:30:00
9:00 PM,86.0,71.6,62,29.89,3.1,SW,5.8,-,N/A,,Haze,230,2013-01-22 14:00:00
9:30 PM,86.0,69.8,58,29.92,3.1,SSW,4.6,-,N/A,,Haze,200,2013-01-22 14:30:00
10:00 PM,84.2,71.6,66,29.92,3.1,SW,5.8,-,N/A,,Mist,230,2013-01-22 15:00:00
10:30 PM,84.2,71.6,66,29.92,3.1,SSW,3.5,-,N/A,,Mist,200,2013-01-22 15:30:00
11:00 PM,84.2,71.6,66,29.92,3.1,SSW,4.6,-,N/A,,Mist,210,2013-01-22 16:00:00
11:30 PM,84.2,71.6,66,29.92,3.1,SSW,3.5,-,N/A,,Mist,210,2013-01-22 16:30:00